TAM3505 SBJP-SBBR

Flight info

Callsign TAM3505
Flight time N/A
Altitude 34000
Route KUKES UZ59 VADOP
Aircraft A320/M-SDE3FGHIRWY/LB1

Departure

Time 2026-05-06 15:35
Airport Presidente Castro Pinto International Airport (SBJP)

Arrival

Time N/A
Airport Presidente Juscelino Kubitschek International Airport (SBBR)
Time Latitude Longitude Altitude Speed Heading
2026-05-06 15:24 -7.14550 -34.94957 216 ft 0 kts 137°
2026-05-06 15:26 -7.14549 -34.94957 216 ft 0 kts 137°
2026-05-06 15:27 -7.14548 -34.94959 216 ft 2 kts 137°
2026-05-06 15:27 -7.14536 -34.94970 219 ft 2 kts 118°
2026-05-06 15:28 -7.14531 -34.94988 217 ft 4 kts 79°
2026-05-06 15:28 -7.14541 -34.95010 223 ft 4 kts 49°
2026-05-06 15:28 -7.14558 -34.95028 217 ft 4 kts 45°
2026-05-06 15:28 -7.14578 -34.95048 217 ft 4 kts 33°
2026-05-06 15:29 -7.14605 -34.95058 219 ft 4 kts 355°
2026-05-06 15:29 -7.14629 -34.95054 225 ft 3 kts 62°
2026-05-06 15:29 -7.14640 -34.95047 221 ft 3 kts 127°
2026-05-06 15:29 -7.14644 -34.95043 219 ft 0 kts 133°
2026-05-06 15:31 -7.14654 -34.95032 219 ft 4 kts 134°
2026-05-06 15:31 -7.14679 -34.95008 220 ft 6 kts 137°
2026-05-06 15:32 -7.14786 -34.95072 220 ft 14 kts 227°
2026-05-06 15:32 -7.14764 -34.95164 219 ft 17 kts 318°
2026-05-06 15:32 -7.14665 -34.95258 216 ft 22 kts 316°
2026-05-06 15:32 -7.14555 -34.95367 216 ft 21 kts 315°
2026-05-06 15:33 -7.14443 -34.95480 214 ft 26 kts 315°
2026-05-06 15:33 -7.14304 -34.95617 218 ft 28 kts 316°
2026-05-06 15:33 -7.14170 -34.95750 222 ft 27 kts 316°
2026-05-06 15:33 -7.14061 -34.95813 222 ft 11 kts 343°
2026-05-06 15:34 -7.14039 -34.95862 221 ft 8 kts 239°
2026-05-06 15:34 -7.14065 -34.95857 221 ft 5 kts 133°
2026-05-06 15:34 -7.14161 -34.95760 218 ft 52 kts 135°
2026-05-06 15:34 -7.14586 -34.95337 216 ft 118 kts 134°
2026-05-06 15:35 -7.15292 -34.94635 243 ft 164 kts 135°
2026-05-06 15:35 -7.16102 -34.93822 941 ft 162 kts 137°
2026-05-06 15:35 -7.16942 -34.92973 1251 ft 182 kts 138°
2026-05-06 15:35 -7.17890 -34.92019 1550 ft 205 kts 136°
2026-05-06 15:36 -7.18956 -34.90942 1899 ft 230 kts 136°
2026-05-06 15:36 -7.20141 -34.89743 2434 ft 247 kts 135°
2026-05-06 15:36 -7.21354 -34.88515 3299 ft 250 kts 135°
2026-05-06 15:36 -7.22589 -34.87267 4106 ft 254 kts 135°
2026-05-06 15:37 -7.23854 -34.85988 4907 ft 258 kts 135°
2026-05-06 15:37 -7.25126 -34.84707 5726 ft 262 kts 135°
2026-05-06 15:37 -7.26414 -34.83408 6552 ft 265 kts 135°
2026-05-06 15:37 -7.27728 -34.82083 7329 ft 268 kts 134°
2026-05-06 15:38 -7.29052 -34.80747 8061 ft 272 kts 134°
2026-05-06 15:38 -7.30411 -34.79377 8808 ft 276 kts 133°
2026-05-06 15:38 -7.31769 -34.78009 9537 ft 279 kts 133°
2026-05-06 15:38 -7.33138 -34.76628 10212 ft 283 kts 133°
2026-05-06 15:39 -7.34598 -34.75151 10424 ft 306 kts 133°
2026-05-06 15:39 -7.36141 -34.73591 10667 ft 323 kts 133°
2026-05-06 15:39 -7.37738 -34.71975 11197 ft 330 kts 133°
2026-05-06 15:39 -7.39382 -34.70314 11812 ft 334 kts 133°
2026-05-06 15:40 -7.41022 -34.68660 12428 ft 338 kts 134°
2026-05-06 15:40 -7.42684 -34.66985 13051 ft 341 kts 134°
2026-05-06 15:40 -7.44376 -34.65279 13682 ft 345 kts 134°
2026-05-06 15:40 -7.46083 -34.63579 14221 ft 349 kts 137°
2026-05-06 15:41 -7.48076 -34.62133 14740 ft 354 kts 150°
2026-05-06 15:41 -7.50365 -34.61183 15257 ft 360 kts 163°
2026-05-06 15:41 -7.52844 -34.60790 15774 ft 366 kts 175°
2026-05-06 15:41 -7.55415 -34.60686 16298 ft 369 kts 176°
2026-05-06 15:42 -7.57980 -34.60578 16816 ft 372 kts 176°
2026-05-06 15:42 -7.60575 -34.60458 17318 ft 376 kts 176°
2026-05-06 15:42 -7.63229 -34.60331 17819 ft 380 kts 176°
2026-05-06 15:42 -7.65876 -34.60299 18304 ft 384 kts 184°
2026-05-06 15:43 -7.68482 -34.60814 18708 ft 388 kts 198°
2026-05-06 15:43 -7.70959 -34.61967 19142 ft 392 kts 212°
2026-05-06 15:43 -7.73093 -34.63675 19565 ft 395 kts 226°
2026-05-06 15:43 -7.74855 -34.65705 20001 ft 398 kts 230°
2026-05-06 15:44 -7.76645 -34.67830 20444 ft 401 kts 230°
2026-05-06 15:44 -7.78474 -34.70000 20889 ft 404 kts 230°
2026-05-06 15:44 -7.80294 -34.72157 21339 ft 407 kts 230°
2026-05-06 15:44 -7.82149 -34.74352 21790 ft 409 kts 230°
2026-05-06 15:45 -7.83986 -34.76521 22237 ft 412 kts 230°
2026-05-06 15:45 -7.85872 -34.78747 22682 ft 415 kts 230°
2026-05-06 15:45 -7.87746 -34.80959 23115 ft 418 kts 231°
2026-05-06 15:45 -7.89643 -34.83170 23533 ft 421 kts 230°
2026-05-06 15:46 -7.91631 -34.85379 23902 ft 423 kts 229°
2026-05-06 15:46 -7.93642 -34.87541 24277 ft 425 kts 228°
2026-05-06 15:46 -7.95698 -34.89716 24671 ft 426 kts 228°
2026-05-06 15:46 -7.97740 -34.91873 25070 ft 427 kts 228°
2026-05-06 15:47 -7.99783 -34.94047 25457 ft 428 kts 228°
2026-05-06 15:47 -8.01820 -34.96236 25831 ft 429 kts 229°
2026-05-06 15:47 -8.03875 -34.98465 26187 ft 431 kts 229°
2026-05-06 15:47 -8.05911 -35.00679 26530 ft 432 kts 229°
2026-05-06 15:48 -8.07804 -35.03007 26872 ft 431 kts 238°
2026-05-06 15:48 -8.09293 -35.05619 27193 ft 430 kts 247°
2026-05-06 15:48 -8.10474 -35.08423 27523 ft 431 kts 249°
2026-05-06 15:48 -8.11633 -35.11203 27856 ft 432 kts 249°
2026-05-06 15:49 -8.12799 -35.13987 28177 ft 433 kts 249°
2026-05-06 15:49 -8.13986 -35.16816 28499 ft 434 kts 249°
2026-05-06 15:49 -8.15162 -35.19615 28796 ft 436 kts 249°
2026-05-06 15:49 -8.16348 -35.22428 29105 ft 437 kts 249°
2026-05-06 15:50 -8.17554 -35.25286 29433 ft 438 kts 249°
2026-05-06 15:50 -8.18737 -35.28096 29722 ft 439 kts 249°
2026-05-06 15:50 -8.19929 -35.30932 30006 ft 440 kts 249°
2026-05-06 15:50 -8.21137 -35.33807 30245 ft 441 kts 249°
2026-05-06 15:51 -8.22332 -35.36649 30484 ft 442 kts 249°
2026-05-06 15:51 -8.23528 -35.39494 30711 ft 443 kts 249°
2026-05-06 15:51 -8.24739 -35.42375 30946 ft 443 kts 249°
2026-05-06 15:51 -8.25939 -35.45240 31166 ft 443 kts 249°
2026-05-06 15:52 -8.27126 -35.48075 31472 ft 441 kts 249°
2026-05-06 15:52 -8.28328 -35.50950 31817 ft 438 kts 249°
2026-05-06 15:52 -8.29509 -35.53773 32137 ft 436 kts 249°
2026-05-06 15:52 -8.30685 -35.56580 32478 ft 434 kts 249°
2026-05-06 15:53 -8.31851 -35.59360 32803 ft 432 kts 249°
2026-05-06 15:53 -8.33029 -35.62167 33136 ft 430 kts 249°
2026-05-06 15:53 -8.34185 -35.64927 33473 ft 428 kts 249°
2026-05-06 15:53 -8.35340 -35.67687 33807 ft 426 kts 249°
2026-05-06 15:54 -8.36497 -35.70449 33997 ft 424 kts 249°
2026-05-06 15:54 -8.37629 -35.73151 34031 ft 416 kts 249°
2026-05-06 15:54 -8.39864 -35.78511 34024 ft 412 kts 249°
2026-05-06 15:55 -8.42077 -35.83818 34029 ft 411 kts 249°
2026-05-06 15:55 -8.44278 -35.89079 34032 ft 411 kts 249°
2026-05-06 15:56 -8.46500 -35.94394 34023 ft 411 kts 249°
2026-05-06 15:56 -8.48717 -35.99708 34031 ft 410 kts 249°
2026-05-06 15:57 -8.50933 -36.05022 34029 ft 410 kts 248°
2026-05-06 15:57 -8.53159 -36.10340 34034 ft 410 kts 248°
2026-05-06 15:58 -8.55377 -36.15658 34035 ft 410 kts 248°
2026-05-06 15:58 -8.57204 -36.20062 34032 ft 410 kts 248°
2026-05-06 15:59 -8.59412 -36.25372 34041 ft 409 kts 248°
2026-05-06 15:59 -8.61619 -36.30671 34040 ft 409 kts 248°
2026-05-06 16:00 -8.63827 -36.35972 34024 ft 409 kts 248°
2026-05-06 16:00 -8.66038 -36.41281 34036 ft 408 kts 248°
2026-05-06 16:01 -8.68228 -36.46543 34046 ft 408 kts 248°
2026-05-06 16:01 -8.70438 -36.51846 34035 ft 408 kts 248°
2026-05-06 16:02 -8.72621 -36.57106 34028 ft 407 kts 248°
2026-05-06 16:02 -8.74815 -36.62401 34028 ft 407 kts 248°
2026-05-06 16:03 -8.77015 -36.67705 34023 ft 407 kts 248°
2026-05-06 16:03 -8.79195 -36.72964 34027 ft 407 kts 248°
2026-05-06 16:04 -8.81383 -36.78246 34039 ft 408 kts 248°
2026-05-06 16:04 -8.83587 -36.83554 34039 ft 408 kts 248°
2026-05-06 16:05 -8.85785 -36.88857 34027 ft 409 kts 248°
2026-05-06 16:05 -8.87976 -36.94148 34034 ft 409 kts 248°
2026-05-06 16:06 -8.90176 -36.99465 34015 ft 409 kts 248°
2026-05-06 16:06 -8.92368 -37.04758 34011 ft 409 kts 248°
2026-05-06 16:07 -8.94568 -37.10075 34011 ft 409 kts 248°
2026-05-06 16:07 -8.96757 -37.15361 34005 ft 409 kts 247°
2026-05-06 16:08 -8.98950 -37.20675 34004 ft 409 kts 248°
2026-05-06 16:08 -9.01166 -37.25953 34004 ft 409 kts 243°
2026-05-06 16:09 -9.04221 -37.30809 34002 ft 410 kts 237°
2026-05-06 16:09 -9.07386 -37.35621 34006 ft 410 kts 237°
2026-05-06 16:10 -9.10522 -37.40420 34011 ft 410 kts 237°
2026-05-06 16:10 -9.13671 -37.45245 34007 ft 410 kts 237°
2026-05-06 16:11 -9.16828 -37.50080 34008 ft 410 kts 237°
2026-05-06 16:11 -9.19976 -37.54906 34020 ft 410 kts 237°
2026-05-06 16:12 -9.23115 -37.59709 34025 ft 410 kts 237°
2026-05-06 16:12 -9.26275 -37.64543 34004 ft 410 kts 237°
2026-05-06 16:13 -9.29401 -37.69337 34020 ft 410 kts 237°
2026-05-06 16:13 -9.32551 -37.74170 34011 ft 410 kts 237°
2026-05-06 16:14 -9.35700 -37.79004 34003 ft 410 kts 237°
2026-05-06 16:14 -9.38825 -37.83810 34014 ft 410 kts 237°
2026-05-06 16:15 -9.41983 -37.88658 33997 ft 410 kts 237°
2026-05-06 16:15 -9.45132 -37.93492 34014 ft 411 kts 237°
2026-05-06 16:16 -9.48260 -37.98295 34013 ft 411 kts 237°
2026-05-06 16:16 -9.51415 -38.03147 34016 ft 411 kts 237°
2026-05-06 16:17 -9.54569 -38.07992 34026 ft 411 kts 237°
2026-05-06 16:17 -9.57702 -38.12807 34028 ft 411 kts 237°
2026-05-06 16:18 -9.60856 -38.17655 34041 ft 411 kts 237°
2026-05-06 16:18 -9.63992 -38.22478 34034 ft 411 kts 237°
2026-05-06 16:19 -9.67148 -38.27343 34034 ft 411 kts 237°
2026-05-06 16:19 -9.70280 -38.32168 34039 ft 411 kts 237°
2026-05-06 16:20 -9.73430 -38.37029 34019 ft 411 kts 237°
2026-05-06 16:20 -9.76550 -38.41840 34024 ft 410 kts 237°
2026-05-06 16:21 -9.79697 -38.46701 34028 ft 410 kts 237°
2026-05-06 16:21 -9.82810 -38.51528 34033 ft 410 kts 237°
2026-05-06 16:22 -9.85938 -38.56376 34030 ft 410 kts 237°
2026-05-06 16:22 -9.89074 -38.61232 34035 ft 410 kts 237°
2026-05-06 16:23 -9.92179 -38.66061 34033 ft 410 kts 237°
2026-05-06 16:23 -9.95301 -38.70926 34023 ft 410 kts 237°
2026-05-06 16:24 -9.98407 -38.75751 34015 ft 410 kts 237°
2026-05-06 16:24 -10.01529 -38.80606 34025 ft 410 kts 237°
2026-05-06 16:25 -10.04623 -38.85428 34017 ft 410 kts 237°
2026-05-06 16:25 -10.07741 -38.90294 34018 ft 410 kts 237°
2026-05-06 16:26 -10.10850 -38.95129 34019 ft 410 kts 237°
2026-05-06 16:26 -10.13975 -38.99987 34016 ft 410 kts 237°
2026-05-06 16:27 -10.17097 -39.04841 34021 ft 410 kts 237°
2026-05-06 16:27 -10.20199 -39.09684 34019 ft 411 kts 237°
2026-05-06 16:28 -10.23328 -39.14565 34020 ft 411 kts 237°
2026-05-06 16:28 -10.26437 -39.19422 34029 ft 412 kts 237°
2026-05-06 16:29 -10.29562 -39.24316 34019 ft 412 kts 237°
2026-05-06 16:29 -10.32670 -39.29175 34019 ft 412 kts 237°
2026-05-06 16:30 -10.35263 -39.33238 34019 ft 412 kts 237°
2026-05-06 16:30 -10.38899 -39.38921 34020 ft 412 kts 237°
2026-05-06 16:31 -10.42013 -39.43826 34020 ft 412 kts 237°
2026-05-06 16:31 -10.45124 -39.48728 34021 ft 412 kts 237°
2026-05-06 16:32 -10.48215 -39.53618 34017 ft 412 kts 237°
2026-05-06 16:32 -10.51314 -39.58497 34024 ft 412 kts 237°
2026-05-06 16:33 -10.54428 -39.63401 34021 ft 413 kts 237°
2026-05-06 16:34 -10.59091 -39.70765 34024 ft 413 kts 237°